Overview Statistics Trail Chart Weather Telemetry Raw packets
 

This is the latest recevied weather packets stored in our database for station/object EA5DFV. If no packets are shown the sender has not sent any weather packets the latest 10 day(s).

<< 111 112 113 114 115 116 >>
Time Temp. Humidity Pressure Rain* Wind** Luminosity Snow
1787731711 27.22° C 73% 1012.1 hPa 1.02 mm - 33 W/m² -
1787731422 27.22° C 72% 1012.9 hPa 0 mm - 19 W/m² -
1787731112 27.22° C 70% 1013.2 hPa 0 mm - 19 W/m² -
1787730802 27.22° C 70% 1013.4 hPa 0 mm - 28 W/m² -
1787730516 27.22° C 72% 1013.3 hPa 0 mm - 54 W/m² -
1787730219 27.22° C 73% 1012.8 hPa 0 mm - 128 W/m² -
1787729912 27.22° C 72% 1012.3 hPa 0 mm - 141 W/m² -
1787729603 27.22° C 73% 1012.3 hPa 0 mm - 144 W/m² -
1787729314 27.22° C 74% 1012.1 hPa 0 mm - 144 W/m² -
1787729007 26.67° C 75% 1011.6 hPa 0 mm - 181 W/m² -
1787728701 26.67° C 75% 1011.3 hPa 0 mm - 181 W/m² -
1787728411 26.11° C 75% 1011.2 hPa 0 mm - 195 W/m² -
1787728122 26.11° C 75% 1011.2 hPa 0 mm - 151 W/m² -
1787727816 26.11° C 75% 1011.4 hPa 0 mm - 118 W/m² -
1787727507 25.56° C 75% 1011.3 hPa 0 mm - 93 W/m² -
1787727218 25.56° C 74% 1011.3 hPa 0 mm - 100 W/m² -
1787726911 25.56° C 74% 1011.1 hPa 0 mm - 86 W/m² -
1787726622 25.56° C 73% 1011.7 hPa 0 mm - 58 W/m² -
1787726312 25.56° C 73% 1011.8 hPa 0 mm - 69 W/m² -
1787726023 25.56° C 73% 1011.9 hPa 0 mm - 84 W/m² -
1787725713 25.56° C 73% 1012.9 hPa 0 mm - 90 W/m² -
1787725408 25.56° C 72% 1012.7 hPa 0 mm - 79 W/m² -
1787725119 25.56° C 72% 1012.1 hPa 0 mm - 63 W/m² -
1787724809 25.56° C 72% 1011.9 hPa 0 mm - 44 W/m² -
1787724506 25.56° C 72% 1011.7 hPa 0 mm - 47 W/m² -

* Rain latest hour (hover to see other rain measurements)
** Current wind speed in m/s (hover to see current wind gust speed)